This is the latest recevied weather packets stored in our database for station/object NO3U. If no packets are shown the sender has not sent any weather packets the latest 10 day(s).
| Time | Temp. | Humidity | Pressure | Rain* | Wind** | Luminosity | Snow |
|---|---|---|---|---|---|---|---|
| 1777916219 | 21.11° C | 46% | 1008.8 hPa | 0 mm | - | 122 W/m² | - |
| 1777915916 | 21.11° C | 50% | 1009.2 hPa | 0 mm | - | 153 W/m² | - |
| 1777915613 | 21.11° C | 48% | 1009 hPa | 0 mm | - | 156 W/m² | - |
| 1777915309 | 20.56° C | 47% | 1008.9 hPa | 0 mm | - | 217 W/m² | - |
| 1777915005 | 20.56° C | 48% | 1009 hPa | 0 mm | - | 172 W/m² | - |
| 1777914703 | 20.56° C | 47% | 1009.1 hPa | 0 mm | - | 104 W/m² | - |
| 1777914399 | 20.56° C | 50% | 1009.3 hPa | 0 mm | - | 74 W/m² | - |
| 1777914097 | 20° C | 47% | 1009.3 hPa | 0 mm | - | 68 W/m² | - |
| 1777913793 | 20.56° C | 47% | 1009.5 hPa | 0 mm | - | 67 W/m² | - |
| 1777913489 | 20° C | 50% | 1009.5 hPa | 0 mm | - | 67 W/m² | - |
| 1777913186 | 20° C | 48% | 1009.6 hPa | 0 mm | - | 119 W/m² | - |
| 1777912881 | 20° C | 49% | 1009.7 hPa | 0 mm | - | 678 W/m² | - |
| 1777912579 | 19.44° C | 49% | 1009.9 hPa | 0 mm | - | 680 W/m² | - |
| 1777912275 | 19.44° C | 48% | 1009.9 hPa | 0 mm | - | 677 W/m² | - |
| 1777911971 | 19.44° C | 49% | 1010 hPa | 0 mm | - | 678 W/m² | - |
| 1777911668 | 20° C | 48% | 1009.9 hPa | 0 mm | - | 663 W/m² | - |
| 1777911363 | 19.44° C | 49% | 1009.9 hPa | 0 mm | - | 659 W/m² | - |
| 1777911062 | 18.89° C | 48% | 1010.3 hPa | 0 mm | - | 662 W/m² | - |
| 1777910759 | 19.44° C | 49% | 1010.4 hPa | 0 mm | - | 654 W/m² | - |
| 1777910455 | 18.89° C | 48% | 1010.3 hPa | 0 mm | - | 646 W/m² | - |
| 1777910151 | 19.44° C | 48% | 1010.3 hPa | 0 mm | - | 641 W/m² | - |
| 1777909849 | 18.89° C | 47% | 1010.6 hPa | 0 mm | - | 635 W/m² | - |
| 1777909545 | 18.33° C | 49% | 1010.5 hPa | 0 mm | - | 620 W/m² | - |
| 1777909243 | 18.89° C | 50% | 1010.5 hPa | 0 mm | - | 613 W/m² | - |
| 1777908941 | 18.89° C | 48% | 1010.4 hPa | 0 mm | - | 602 W/m² | - |
* Rain latest hour (hover to see other rain measurements)
** Current wind speed in m/s (hover to see current wind gust speed)